{"data":{"norad_id":69015,"intl_designator":"2026-100AM","name":"FRONTIERSAT","alt_names":[],"object_type":"PAYLOAD","status":"ACTIVE","operator":null,"country":"CA","launch_date":"2026-05-03","launch_site_code":"AFWTR","launch_vehicle":null,"mission":null,"orbit_class":"UNKNOWN","rcs_meters":null,"size_class":null,"mass_kg":null,"dimensions":null,"purposes":[],"wikipedia_slug":null,"has_3d_model":false,"image_url":null,"decayed_at":null,"tle_current":{"epoch":"2026-05-25T04:09:25.908192Z","epoch_age_seconds":53247,"freshness":"FRESH","line1":"1 69015U 26100AM  26145.17321653  .00007981  00000+0  35975-3 0  9992","line2":"2 69015  97.4029  43.4198 0010096 117.4372 242.7891 15.21254019  3325","mean_motion":15.21254019,"eccentricity":0.0010096,"inclination_deg":97.4029,"raan_deg":43.4198,"arg_perigee_deg":117.4372,"mean_anomaly_deg":242.7891,"bstar":0.00035975,"rev_number":332,"period_min":94.658747455378,"perigee_km":495.11072603139,"apogee_km":509.00321369534,"semimajor_km":6880.1939698634,"source":"CELESTRAK","updated_at":"2026-05-25T13:38:09.040409Z"}}}